{"data":{"norad_id":52094,"epoch":"2026-05-25T04:25:19.332192Z","epoch_age_seconds":69249,"freshness":"FRESH","line1":"1 52094U 22029G   26145.18425153  .00000666  00000+0  59974-4 0  9997","line2":"2 52094  53.2119 105.7238 0001524  89.4796 270.6370 15.08832848232205","mean_motion":15.08832848,"eccentricity":0.0001524,"inclination_deg":53.2119,"raan_deg":105.7238,"arg_perigee_deg":89.4796,"mean_anomaly_deg":270.637,"bstar":5.9974e-5,"rev_number":23220,"period_min":95.438007060143,"perigee_km":538.71096155038,"apogee_km":540.81953815613,"semimajor_km":6917.9022498533,"source":"CELESTRAK","updated_at":"2026-05-25T13:38:17.001016Z"}}